Location: Unnamed
(33.0780°N, 97.0417°W)
Time: 01:59:57
(UTC-05:00)

Hubble Space Telescope - Pass Details

Date: 06 April 2021
Orbit: 535 x 539 km, 28.5° (Epoch: 28 July)

Event Time Altitude Azimuth Distance (km) Brightness Sun altitude
Exits shadow 05:52:11 30° 222° (SW) 970 1.6 -16.5°
Maximum altitude 05:53:36 41° 175° (S) 772 1.4 -16.2°
Drops below altitude 10° 05:57:30 10° 104° (ESE) 1,780 4.3 -15.4°
Sets 05:59:50 0° 97° (E) 2,672 5.5 -14.9°
